Station Historical Data
Daily Summary for July 17, 2017 Units:  English    Metric   Both
Next Day »
Daily Weekly Monthly Yearly Custom
  High: Low: Average:
Temperature: 92.6 °F 71.3 °F 79.4 °F
Dew Point: 52.7 °F 41.7 °F 46.3 °F
Humidity: 43% 19% 32%
Wind Speed: 15.0mph 0.0mph 4.2mph
Wind Gust: 21.0mph - -
Wind- - SSE
Pressure: 29.86 in 29.78 in -
Precipitation: 0.00 in    
Historical Graphs
 
 
Tabular Data for July 17, 2017
Time Temperature Dew Point Pressure Wind Wind Speed Wind Gust Humidity Rainfall Rate (Hourly) solar Conditions
00:03 76.3 °F 48.1 °F 29.82 in ESE 8.0 mph 16.0 mph 37% 0.00 in 0.00 W/m2
00:08 76.3 °F 48.1 °F 29.82 in Calm   13.0 mph 37% 0.00 in 0.00 W/m2
00:13 76.2 °F 48.8 °F 29.82 in ESE 8.0 mph 15.0 mph 38% 0.00 in 0.00 W/m2
00:18 76.2 °F 48.8 °F 29.82 in ESE 12.0 mph 16.0 mph 38% 0.00 in 0.00 W/m2
00:23 76.1 °F 48.7 °F 29.82 in ESE 5.0 mph 12.0 mph 38% 0.00 in 0.00 W/m2
00:28 76.0 °F 48.6 °F 29.82 in ESE 5.0 mph 16.0 mph 38% 0.00 in 0.00 W/m2
00:33 75.9 °F 48.5 °F 29.82 in Calm   14.0 mph 38% 0.00 in 0.00 W/m2
00:38 75.8 °F 48.4 °F 29.82 in ESE 4.0 mph 13.0 mph 38% 0.00 in 0.00 W/m2
00:43 75.7 °F 48.3 °F 29.82 in East 2.0 mph 18.0 mph 38% 0.00 in 0.00 W/m2
00:48 75.7 °F 48.3 °F 29.81 in ESE 7.0 mph 13.0 mph 38% 0.00 in 0.00 W/m2
00:53 75.7 °F 48.3 °F 29.82 in East 14.0 mph 18.0 mph 38% 0.00 in 0.00 W/m2
00:58 75.6 °F 48.2 °F 29.81 in East 5.0 mph 15.0 mph 38% 0.00 in 0.00 W/m2
01:03 75.6 °F 48.2 °F 29.81 in East 9.0 mph 15.0 mph 38% 0.00 in 0.00 W/m2
01:08 75.6 °F 48.2 °F 29.81 in ESE 6.0 mph 14.0 mph 38% 0.00 in 0.00 W/m2
01:13 75.6 °F 48.2 °F 29.81 in ESE 14.0 mph 15.0 mph 38% 0.00 in 0.00 W/m2
01:18 75.6 °F 48.2 °F 29.81 in ESE 8.0 mph 18.0 mph 38% 0.00 in 0.00 W/m2
01:24 75.6 °F 47.5 °F 29.81 in Calm   18.0 mph 37% 0.00 in 0.00 W/m2
01:29 75.6 °F 47.5 °F 29.81 in SE 4.0 mph 18.0 mph 37% 0.00 in 0.00 W/m2
01:34 75.6 °F 47.5 °F 29.81 in East 8.0 mph 14.0 mph 37% 0.00 in 0.00 W/m2
01:39 75.6 °F 47.5 °F 29.81 in ESE 11.0 mph 16.0 mph 37% 0.00 in 0.00 W/m2
01:40 75.6 °F 47.5 °F 29.81 in ESE 1.0 mph 21.0 mph 37% 0.00 in 0.00 W/m2
01:45 75.5 °F 48.1 °F 29.81 in SE 14.0 mph 19.0 mph 38% 0.00 in 0.00 W/m2
01:50 75.5 °F 47.4 °F 29.81 in ESE 1.0 mph 19.0 mph 37% 0.00 in 0.00 W/m2
01:55 75.4 °F 47.3 °F 29.81 in ESE 6.0 mph 15.0 mph 37% 0.00 in 0.00 W/m2
02:00 75.4 °F 48.0 °F 29.80 in Calm   15.0 mph 38% 0.00 in 0.00 W/m2
02:05 75.3 °F 48.0 °F 29.80 in ESE 12.0 mph 18.0 mph 38% 0.00 in 0.00 W/m2
02:10 75.2 °F 47.9 °F 29.80 in ESE 9.0 mph 20.0 mph 38% 0.00 in 0.00 W/m2
02:16 75.1 °F 47.8 °F 29.80 in Calm   15.0 mph 38% 0.00 in 0.00 W/m2
02:21 75.0 °F 47.0 °F 29.80 in Calm   15.0 mph 37% 0.00 in 0.00 W/m2
02:26 74.9 °F 47.6 °F 29.80 in East 7.0 mph 10.0 mph 38% 0.00 in 0.00 W/m2
02:31 74.9 °F 46.9 °F 29.80 in ESE 13.0 mph 14.0 mph 37% 0.00 in 0.00 W/m2
02:36 74.8 °F 46.8 °F 29.80 in East 13.0 mph 13.0 mph 37% 0.00 in 0.00 W/m2
02:41 74.8 °F 46.8 °F 29.79 in SE 11.0 mph 12.0 mph 37% 0.00 in 0.00 W/m2
02:46 74.8 °F 46.8 °F 29.79 in ESE 8.0 mph 8.0 mph 37% 0.00 in 0.00 W/m2
02:51 74.8 °F 46.8 °F 29.79 in Calm   2.0 mph 37% 0.00 in 0.00 W/m2
02:56 74.7 °F 47.4 °F 29.79 in East 5.0 mph 8.0 mph 38% 0.00 in 0.00 W/m2
03:01 74.5 °F 46.5 °F 29.79 in ENE 6.0 mph 7.0 mph 37% 0.00 in 0.00 W/m2
03:06 74.4 °F 46.5 °F 29.79 in ESE 6.0 mph 9.0 mph 37% 0.00 in 0.00 W/m2
03:11 74.3 °F 47.1 °F 29.79 in ESE 6.0 mph 8.0 mph 38% 0.00 in 0.00 W/m2
03:16 74.2 °F 46.3 °F 29.79 in ESE 6.0 mph 9.0 mph 37% 0.00 in 0.00 W/m2
03:21 74.2 °F 47.0 °F 29.79 in East 12.0 mph 12.0 mph 38% 0.00 in 0.00 W/m2
03:26 74.1 °F 46.2 °F 29.79 in ESE 11.0 mph 11.0 mph 37% 0.00 in 0.00 W/m2
03:31 74.0 °F 46.1 °F 29.78 in East 9.0 mph 9.0 mph 37% 0.00 in 0.00 W/m2
03:36 73.9 °F 46.0 °F 29.79 in ESE 12.0 mph 12.0 mph 37% 0.00 in 0.00 W/m2
03:41 73.8 °F 45.9 °F 29.79 in Calm   8.0 mph 37% 0.00 in 0.00 W/m2
03:42 73.7 °F 45.8 °F 29.79 in ESE 11.0 mph 13.0 mph 37% 0.00 in 0.00 W/m2
03:47 73.7 °F 45.8 °F 29.79 in ESE 6.0 mph 14.0 mph 37% 0.00 in 0.00 W/m2
03:52 73.6 °F 45.8 °F 29.79 in East 12.0 mph 12.0 mph 37% 0.00 in 0.00 W/m2
03:57 73.5 °F 45.7 °F 29.78 in East 11.0 mph 14.0 mph 37% 0.00 in 0.00 W/m2
04:02 73.4 °F 45.6 °F 29.78 in East 12.0 mph 13.0 mph 37% 0.00 in 0.00 W/m2
04:07 73.3 °F 45.5 °F 29.78 in East 5.0 mph 12.0 mph 37% 0.00 in 0.00 W/m2
04:12 73.2 °F 45.4 °F 29.78 in East 1.0 mph 15.0 mph 37% 0.00 in 0.00 W/m2
04:17 73.1 °F 45.3 °F 29.78 in ESE 8.0 mph 13.0 mph 37% 0.00 in 0.00 W/m2
04:22 73.1 °F 45.3 °F 29.78 in ESE 6.0 mph 13.0 mph 37% 0.00 in 0.00 W/m2
04:27 72.9 °F 44.4 °F 29.78 in SE 13.0 mph 15.0 mph 36% 0.00 in 0.00 W/m2
04:32 72.9 °F 44.4 °F 29.79 in ESE 8.0 mph 15.0 mph 36% 0.00 in 0.00 W/m2
04:37 72.8 °F 44.3 °F 29.78 in East 11.0 mph 18.0 mph 36% 0.00 in 0.00 W/m2
04:43 72.7 °F 44.2 °F 29.79 in East 9.0 mph 14.0 mph 36% 0.00 in 0.00 W/m2
04:48 72.6 °F 43.4 °F 29.79 in East 8.0 mph 15.0 mph 35% 0.00 in 0.00 W/m2
04:53 72.6 °F 43.4 °F 29.79 in East 12.0 mph 14.0 mph 35% 0.00 in 0.00 W/m2
04:58 72.5 °F 44.1 °F 29.79 in East 1.0 mph 14.0 mph 36% 0.00 in 0.00 W/m2
05:03 72.5 °F 44.1 °F 29.79 in ESE 7.0 mph 11.0 mph 36% 0.00 in 0.00 W/m2
05:08 72.5 °F 43.3 °F 29.79 in ESE 6.0 mph 14.0 mph 35% 0.00 in 0.00 W/m2
05:13 72.4 °F 43.2 °F 29.79 in East 9.0 mph 18.0 mph 35% 0.00 in 0.00 W/m2
05:18 72.2 °F 43.8 °F 29.79 in ESE 9.0 mph 12.0 mph 36% 0.00 in 0.00 W/m2
05:23 72.1 °F 43.0 °F 29.79 in ESE 8.0 mph 11.0 mph 35% 0.00 in 0.00 W/m2
05:28 72.0 °F 42.9 °F 29.79 in ENE 6.0 mph 14.0 mph 35% 0.00 in 0.00 W/m2
05:33 72.0 °F 42.9 °F 29.79 in East 9.0 mph 15.0 mph 35% 0.00 in 0.00 W/m2
05:38 71.9 °F 42.8 °F 29.79 in ESE 8.0 mph 17.0 mph 35% 0.00 in 0.00 W/m2
05:43 71.8 °F 42.7 °F 29.79 in East 6.0 mph 14.0 mph 35% 0.00 in 0.00 W/m2
05:48 71.7 °F 42.6 °F 29.80 in ESE 6.0 mph 17.0 mph 35% 0.00 in 5.00 W/m2
05:53 71.7 °F 42.6 °F 29.80 in East 6.0 mph 12.0 mph 35% 0.00 in 5.00 W/m2
05:58 71.6 °F 41.8 °F 29.80 in East 15.0 mph 16.0 mph 34% 0.00 in 7.00 W/m2
06:03 71.6 °F 41.8 °F 29.80 in ESE 7.0 mph 15.0 mph 34% 0.00 in 9.00 W/m2
06:08 71.6 °F 41.8 °F 29.80 in ESE 6.0 mph 13.0 mph 34% 0.00 in 11.00 W/m2
06:13 71.6 °F 41.8 °F 29.80 in ESE 11.0 mph 15.0 mph 34% 0.00 in 12.00 W/m2
06:18 71.6 °F 41.8 °F 29.80 in ESE 2.0 mph 16.0 mph 34% 0.00 in 14.00 W/m2
06:23 71.5 °F 41.7 °F 29.81 in East 3.0 mph 14.0 mph 34% 0.00 in 21.00 W/m2
06:28 71.5 °F 41.7 °F 29.81 in ESE 8.0 mph 18.0 mph 34% 0.00 in 28.00 W/m2
06:33 71.5 °F 42.4 °F 29.81 in East 9.0 mph 14.0 mph 35% 0.00 in 42.00 W/m2
06:38 71.5 °F 42.4 °F 29.81 in ESE 6.0 mph 14.0 mph 35% 0.00 in 53.00 W/m2
06:43 71.5 °F 42.4 °F 29.81 in East 10.0 mph 19.0 mph 35% 0.00 in 67.00 W/m2
06:48 71.5 °F 42.4 °F 29.81 in ESE 6.0 mph 15.0 mph 35% 0.00 in 84.00 W/m2
06:53 71.4 °F 42.3 °F 29.81 in ESE 2.0 mph 19.0 mph 35% 0.00 in 91.00 W/m2
06:58 71.4 °F 42.3 °F 29.81 in ESE 9.0 mph 13.0 mph 35% 0.00 in 114.00 W/m2
07:03 71.3 °F 42.3 °F 29.81 in ESE 4.0 mph 13.0 mph 35% 0.00 in 130.00 W/m2
07:08 71.3 °F 42.3 °F 29.81 in ESE 11.0 mph 14.0 mph 35% 0.00 in 151.00 W/m2
07:13 71.3 °F 43.0 °F 29.81 in SE 6.0 mph 15.0 mph 36% 0.00 in 171.00 W/m2
07:18 71.3 °F 43.0 °F 29.81 in East 7.0 mph 13.0 mph 36% 0.00 in 190.00 W/m2
07:23 71.3 °F 43.0 °F 29.82 in SE 5.0 mph 12.0 mph 36% 0.00 in 211.00 W/m2
07:28 71.3 °F 43.0 °F 29.82 in ESE 8.0 mph 13.0 mph 36% 0.00 in 234.00 W/m2
07:30 71.3 °F 43.0 °F 29.82 in Calm   13.0 mph 36% 0.00 in 236.00 W/m2
07:35 71.4 °F 43.8 °F 29.82 in ESE 7.0 mph 13.0 mph 37% 0.00 in 255.00 W/m2
07:40 71.4 °F 43.8 °F 29.81 in ESE 6.0 mph 12.0 mph 37% 0.00 in 272.00 W/m2
07:45 71.5 °F 44.6 °F 29.82 in Calm   13.0 mph 38% 0.00 in 292.00 W/m2
07:50 71.6 °F 44.7 °F 29.82 in ESE 5.0 mph 13.0 mph 38% 0.00 in 306.00 W/m2
07:55 71.6 °F 44.7 °F 29.82 in SE 6.0 mph 13.0 mph 38% 0.00 in 318.00 W/m2
08:00 71.8 °F 44.8 °F 29.82 in Calm   14.0 mph 38% 0.00 in 336.00 W/m2
08:05 71.9 °F 45.6 °F 29.82 in SE 2.0 mph 13.0 mph 39% 0.00 in 353.00 W/m2
08:10 72.1 °F 45.8 °F 29.82 in Calm   14.0 mph 39% 0.00 in 367.00 W/m2
08:15 72.2 °F 45.9 °F 29.82 in SE 8.0 mph 13.0 mph 39% 0.00 in 385.00 W/m2
08:20 72.4 °F 46.1 °F 29.83 in ESE 6.0 mph 11.0 mph 39% 0.00 in 403.00 W/m2
08:25 72.6 °F 46.9 °F 29.82 in SE 2.0 mph 14.0 mph 40% 0.00 in 418.00 W/m2
08:30 72.8 °F 47.1 °F 29.83 in ESE 7.0 mph 12.0 mph 40% 0.00 in 432.00 W/m2
08:35 73.0 °F 47.3 °F 29.83 in SE 2.0 mph 11.0 mph 40% 0.00 in 446.00 W/m2
08:40 73.3 °F 47.5 °F 29.82 in SE 6.0 mph 12.0 mph 40% 0.00 in 464.00 W/m2
08:45 73.4 °F 47.6 °F 29.83 in SE 2.0 mph 11.0 mph 40% 0.00 in 478.00 W/m2
08:50 73.6 °F 48.5 °F 29.83 in Calm   8.0 mph 41% 0.00 in 492.00 W/m2
08:55 73.8 °F 49.3 °F 29.83 in Calm   8.0 mph 42% 0.00 in 510.00 W/m2
09:00 74.0 °F 49.5 °F 29.83 in SE 4.0 mph 8.0 mph 42% 0.00 in 526.00 W/m2
09:05 74.4 °F 50.5 °F 29.83 in Calm   9.0 mph 43% 0.00 in 540.00 W/m2
09:10 74.6 °F 49.4 °F 29.83 in SSE 5.0 mph 9.0 mph 41% 0.00 in 555.00 W/m2
09:15 74.9 °F 49.6 °F 29.83 in Calm   9.0 mph 41% 0.00 in 568.00 W/m2
09:20 75.3 °F 49.3 °F 29.83 in Calm   10.0 mph 40% 0.00 in 582.00 W/m2
09:25 75.7 °F 50.4 °F 29.83 in Calm   10.0 mph 41% 0.00 in 596.00 W/m2
09:30 76.1 °F 48.7 °F 29.83 in SSE 4.0 mph 11.0 mph 38% 0.00 in 610.00 W/m2
09:35 76.5 °F 48.3 °F 29.83 in South 7.0 mph 11.0 mph 37% 0.00 in 624.00 W/m2
09:40 77.1 °F 48.1 °F 29.83 in SE 9.0 mph 13.0 mph 36% 0.00 in 638.00 W/m2
09:45 77.6 °F 48.6 °F 29.83 in SSE 9.0 mph 11.0 mph 36% 0.00 in 647.00 W/m2
09:46 77.7 °F 48.7 °F 29.83 in SSE 9.0 mph 9.0 mph 36% 0.00 in 647.00 W/m2
09:51 78.1 °F 49.0 °F 29.83 in Calm   12.0 mph 36% 0.00 in 663.00 W/m2
09:56 78.6 °F 49.4 °F 29.83 in SSE 1.0 mph 9.0 mph 36% 0.00 in 677.00 W/m2
10:01 78.9 °F 49.7 °F 29.83 in Calm   10.0 mph 36% 0.00 in 691.00 W/m2
10:06 79.3 °F 50.1 °F 29.83 in Calm   11.0 mph 36% 0.00 in 703.00 W/m2
10:11 79.7 °F 50.4 °F 29.83 in South 6.0 mph 9.0 mph 36% 0.00 in 714.00 W/m2
10:16 80.0 °F 49.9 °F 29.83 in South 4.0 mph 14.0 mph 35% 0.00 in 726.00 W/m2
10:21 80.4 °F 50.3 °F 29.83 in South 6.0 mph 7.0 mph 35% 0.00 in 737.00 W/m2
10:26 80.8 °F 51.4 °F 29.83 in Calm   8.0 mph 36% 0.00 in 747.00 W/m2
10:31 81.1 °F 51.7 °F 29.84 in Calm   10.0 mph 36% 0.00 in 759.00 W/m2
10:36 81.3 °F 51.8 °F 29.83 in Calm     36% 0.00 in 772.00 W/m2
10:41 81.5 °F 52.7 °F 29.83 in SSW 6.0 mph 6.0 mph 37% 0.00 in 780.00 W/m2
10:46 81.7 °F 51.4 °F 29.83 in South 3.0 mph 4.0 mph 35% 0.00 in 793.00 W/m2
10:51 82.0 °F 48.4 °F 29.84 in SSW 5.0 mph 6.0 mph 31% 0.00 in 800.00 W/m2
10:56 82.4 °F 46.1 °F 29.84 in SW 4.0 mph 4.0 mph 28% 0.00 in 812.00 W/m2
11:01 82.7 °F 46.3 °F 29.84 in Calm     28% 0.00 in 821.00 W/m2
11:06 83.1 °F 46.7 °F 29.84 in South 2.0 mph 2.0 mph 28% 0.00 in 826.00 W/m2
11:11 83.5 °F 44.0 °F 29.84 in SSW 3.0 mph 7.0 mph 25% 0.00 in 838.00 W/m2
11:16 83.9 °F 45.4 °F 29.84 in South 1.0 mph 7.0 mph 26% 0.00 in 846.00 W/m2
11:21 84.2 °F 45.6 °F 29.84 in Calm   6.0 mph 26% 0.00 in 854.00 W/m2
11:26 84.5 °F 45.9 °F 29.84 in South 1.0 mph 7.0 mph 26% 0.00 in 858.00 W/m2
11:31 84.8 °F 45.1 °F 29.84 in Calm   7.0 mph 25% 0.00 in 868.00 W/m2
11:36 85.2 °F 43.3 °F 29.84 in SSW 6.0 mph 15.0 mph 23% 0.00 in 877.00 W/m2
11:41 85.5 °F 43.5 °F 29.84 in South 3.0 mph 12.0 mph 23% 0.00 in 882.00 W/m2
11:46 85.9 °F 46.0 °F 29.84 in Calm   2.0 mph 25% 0.00 in 889.00 W/m2
11:51 86.2 °F 48.3 °F 29.84 in SSW 4.0 mph 9.0 mph 27% 0.00 in 898.00 W/m2
11:56 86.4 °F 46.5 °F 29.84 in Calm   9.0 mph 25% 0.00 in 900.00 W/m2
12:01 86.7 °F 47.8 °F 29.84 in SW 6.0 mph 10.0 mph 26% 0.00 in 905.00 W/m2
12:04 86.9 °F 47.9 °F 29.84 in SSW 8.0 mph 10.0 mph 26% 0.00 in 907.00 W/m2
12:09 87.2 °F 46.0 °F 29.84 in South 1.0 mph 15.0 mph 24% 0.00 in 912.00 W/m2
12:14 87.6 °F 45.3 °F 29.84 in SW 5.0 mph 10.0 mph 23% 0.00 in 919.00 W/m2
12:19 88.1 °F 46.8 °F 29.84 in WSW 9.0 mph 10.0 mph 24% 0.00 in 918.00 W/m2
12:24 88.4 °F 47.1 °F 29.84 in South 9.0 mph 13.0 mph 24% 0.00 in 923.00 W/m2
12:29 88.8 °F 47.4 °F 29.84 in Calm   7.0 mph 24% 0.00 in 923.00 W/m2
12:34 89.0 °F 46.4 °F 29.84 in SSE 7.0 mph 11.0 mph 23% 0.00 in 926.00 W/m2
12:44 89.7 °F 45.8 °F 29.84 in Calm   11.0 mph 22% 0.00 in 930.00 W/m2
12:49 90.3 °F 47.5 °F 29.84 in SSE 5.0 mph 11.0 mph 23% 0.00 in 923.00 W/m2
12:54 90.7 °F 46.7 °F 29.84 in Calm   7.0 mph 22% 0.00 in 926.00 W/m2
12:59 90.7 °F 47.8 °F 29.84 in Calm   8.0 mph 23% 0.00 in 935.00 W/m2
13:04 90.5 °F 47.7 °F 29.83 in Calm   12.0 mph 23% 0.00 in 935.00 W/m2
13:09 90.7 °F 46.7 °F 29.84 in SW 4.0 mph 11.0 mph 22% 0.00 in 937.00 W/m2
13:14 91.1 °F 45.8 °F 29.83 in SW 4.0 mph 14.0 mph 21% 0.00 in 935.00 W/m2
13:19 91.3 °F 47.2 °F 29.84 in SSW 6.0 mph 8.0 mph 22% 0.00 in 937.00 W/m2
13:24 91.4 °F 47.2 °F 29.83 in SSW 1.0 mph 11.0 mph 22% 0.00 in 933.00 W/m2
13:29 91.7 °F 46.3 °F 29.83 in SSW 1.0 mph 4.0 mph 21% 0.00 in 923.00 W/m2
13:34 92.1 °F 46.6 °F 29.83 in South 4.0 mph 11.0 mph 21% 0.00 in 923.00 W/m2
13:39 92.5 °F 44.3 °F 29.83 in Calm   14.0 mph 19% 0.00 in 923.00 W/m2
13:44 92.6 °F 45.7 °F 29.83 in SW 8.0 mph 13.0 mph 20% 0.00 in 921.00 W/m2
13:49 92.6 °F 44.4 °F 29.84 in WSW 9.0 mph 11.0 mph 19% 0.00 in 919.00 W/m2
13:54 92.4 °F 46.8 °F 29.84 in Calm   12.0 mph 21% 0.00 in 919.00 W/m2
13:59 91.3 °F 45.9 °F 29.84 in WNW 5.0 mph 10.0 mph 21% 0.00 in 919.00 W/m2
14:04 90.6 °F 45.4 °F 29.84 in Calm   11.0 mph 21% 0.00 in 914.00 W/m2
14:09 90.0 °F 44.9 °F 29.84 in Calm   12.0 mph 21% 0.00 in 909.00 W/m2
14:14 89.7 °F 45.8 °F 29.84 in WSW 2.0 mph 9.0 mph 22% 0.00 in 902.00 W/m2
14:19 89.4 °F 44.4 °F 29.83 in Calm   8.0 mph 21% 0.00 in 895.00 W/m2
14:24 89.3 °F 45.5 °F 29.83 in Calm   13.0 mph 22% 0.00 in 893.00 W/m2
14:29 89.8 °F 45.9 °F 29.83 in Calm   12.0 mph 22% 0.00 in 886.00 W/m2
14:34 89.9 °F 46.0 °F 29.83 in WSW 3.0 mph 11.0 mph 22% 0.00 in 881.00 W/m2
14:39 90.0 °F 46.1 °F 29.84 in WSW 13.0 mph 13.0 mph 22% 0.00 in 879.00 W/m2
14:44 90.0 °F 44.9 °F 29.83 in SW 4.0 mph 10.0 mph 21% 0.00 in 867.00 W/m2
14:49 90.0 °F 43.6 °F 29.83 in Calm   11.0 mph 20% 0.00 in 865.00 W/m2
14:54 89.7 °F 43.3 °F 29.83 in Calm   11.0 mph 20% 0.00 in 853.00 W/m2
15:00 89.7 °F 44.6 °F 29.84 in WSW 7.0 mph 13.0 mph 21% 0.00 in 847.00 W/m2
15:05 89.6 °F 43.3 °F 29.83 in WSW 8.0 mph 13.0 mph 20% 0.00 in 837.00 W/m2
15:10 89.5 °F 45.7 °F 29.83 in Calm   10.0 mph 22% 0.00 in 826.00 W/m2
15:15 89.3 °F 44.3 °F 29.83 in SSW 8.0 mph 13.0 mph 21% 0.00 in 824.00 W/m2
15:20 89.1 °F 44.1 °F 29.83 in Calm   7.0 mph 21% 0.00 in 809.00 W/m2
15:25 88.7 °F 45.0 °F 29.83 in Calm   9.0 mph 22% 0.00 in 800.00 W/m2
15:30 88.6 °F 44.9 °F 29.83 in West 9.0 mph 11.0 mph 22% 0.00 in 795.00 W/m2
15:35 88.5 °F 43.6 °F 29.83 in WSW 1.0 mph 10.0 mph 21% 0.00 in 782.00 W/m2
15:40 88.4 °F 47.1 °F 29.83 in Calm   8.0 mph 24% 0.00 in 772.00 W/m2
15:45 88.5 °F 43.6 °F 29.83 in Calm   13.0 mph 21% 0.00 in 761.00 W/m2
15:50 88.7 °F 43.8 °F 29.83 in West 6.0 mph 9.0 mph 21% 0.00 in 749.00 W/m2
15:55 89.0 °F 42.8 °F 29.83 in Calm   8.0 mph 20% 0.00 in 737.00 W/m2
16:00 89.1 °F 45.3 °F 29.83 in Calm   7.0 mph 22% 0.00 in 726.00 W/m2
16:05 89.0 °F 44.0 °F 29.83 in Calm   9.0 mph 21% 0.00 in 714.00 W/m2
16:08 89.0 °F 44.0 °F 29.83 in WSW 7.0 mph 13.0 mph 21% 0.00 in 707.00 W/m2
16:13 88.9 °F 45.2 °F 29.83 in SW 4.0 mph 11.0 mph 22% 0.00 in 689.00 W/m2
16:18 88.8 °F 46.3 °F 29.82 in West 4.0 mph 8.0 mph 23% 0.00 in 680.00 W/m2
16:23 88.5 °F 47.1 °F 29.82 in WSW 6.0 mph 10.0 mph 24% 0.00 in 666.00 W/m2
16:28 88.2 °F 44.6 °F 29.82 in Calm   11.0 mph 22% 0.00 in 659.00 W/m2
16:33 88.1 °F 44.5 °F 29.82 in WNW 3.0 mph 6.0 mph 22% 0.00 in 643.00 W/m2
16:38 87.9 °F 45.5 °F 29.82 in Calm   8.0 mph 23% 0.00 in 631.00 W/m2
16:43 88.0 °F 44.4 °F 29.82 in SW 6.0 mph 7.0 mph 22% 0.00 in 615.00 W/m2
16:48 88.1 °F 44.5 °F 29.82 in SSW 4.0 mph 8.0 mph 22% 0.00 in 599.00 W/m2
16:53 88.2 °F 45.8 °F 29.82 in West 8.0 mph 15.0 mph 23% 0.00 in 589.00 W/m2
16:58 88.1 °F 44.5 °F 29.82 in SSW 9.0 mph 15.0 mph 22% 0.00 in 568.00 W/m2
17:03 88.0 °F 43.2 °F 29.82 in SW 2.0 mph 7.0 mph 21% 0.00 in 561.00 W/m2
17:08 87.9 °F 44.3 °F 29.82 in SW 4.0 mph 8.0 mph 22% 0.00 in 545.00 W/m2
17:13 87.8 °F 45.4 °F 29.82 in Calm   8.0 mph 23% 0.00 in 526.00 W/m2
17:19 87.7 °F 45.3 °F 29.82 in WSW 1.0 mph 6.0 mph 23% 0.00 in 513.00 W/m2
17:24 87.6 °F 45.3 °F 29.82 in WSW 9.0 mph 9.0 mph 23% 0.00 in 497.00 W/m2
17:29 87.6 °F 46.4 °F 29.82 in WSW 6.0 mph 11.0 mph 24% 0.00 in 480.00 W/m2
17:34 87.6 °F 47.5 °F 29.82 in Calm   1.0 mph 25% 0.00 in 466.00 W/m2
17:39 87.5 °F 45.2 °F 29.82 in Calm   9.0 mph 23% 0.00 in 446.00 W/m2
17:44 87.4 °F 46.2 °F 29.82 in WSW 3.0 mph 9.0 mph 24% 0.00 in 429.00 W/m2
17:49 87.3 °F 46.1 °F 29.82 in SW 3.0 mph 9.0 mph 24% 0.00 in 418.00 W/m2
17:54 87.2 °F 43.8 °F 29.82 in Calm   9.0 mph 22% 0.00 in 401.00 W/m2
17:59 87.2 °F 44.9 °F 29.82 in Calm   10.0 mph 23% 0.00 in 385.00 W/m2
18:04 87.1 °F 44.8 °F 29.82 in SW 3.0 mph 8.0 mph 23% 0.00 in 373.00 W/m2
18:09 87.0 °F 45.9 °F 29.82 in SW 5.0 mph 11.0 mph 24% 0.00 in 359.00 W/m2
18:14 86.9 °F 44.7 °F 29.82 in SW 1.0 mph 11.0 mph 23% 0.00 in 341.00 W/m2
18:19 86.8 °F 45.7 °F 29.82 in Calm   7.0 mph 24% 0.00 in 325.00 W/m2
18:24 86.6 °F 46.6 °F 29.82 in Calm   8.0 mph 25% 0.00 in 308.00 W/m2
18:29 86.3 °F 45.3 °F 29.82 in SW 3.0 mph 10.0 mph 24% 0.00 in 292.00 W/m2
18:34 86.1 °F 47.2 °F 29.82 in Calm   6.0 mph 26% 0.00 in 274.00 W/m2
18:39 85.8 °F 47.0 °F 29.82 in SSW 4.0 mph 9.0 mph 26% 0.00 in 260.00 W/m2
18:44 85.5 °F 45.7 °F 29.82 in SSW 5.0 mph 13.0 mph 25% 0.00 in 243.00 W/m2
18:49 85.2 °F 46.5 °F 29.82 in SSW 9.0 mph 9.0 mph 26% 0.00 in 229.00 W/m2
18:54 84.9 °F 47.2 °F 29.82 in Calm   8.0 mph 27% 0.00 in 214.00 W/m2
18:59 84.5 °F 47.8 °F 29.82 in SSW 6.0 mph 6.0 mph 28% 0.00 in 199.00 W/m2
19:04 84.1 °F 48.5 °F 29.82 in Calm   1.0 mph 29% 0.00 in 181.00 W/m2
19:09 83.6 °F 47.1 °F 29.82 in Calm   8.0 mph 28% 0.00 in 163.00 W/m2
19:14 83.2 °F 47.7 °F 29.82 in Calm   12.0 mph 29% 0.00 in 146.00 W/m2
19:19 82.8 °F 47.3 °F 29.82 in Calm   11.0 mph 29% 0.00 in 125.00 W/m2
19:24 82.4 °F 47.9 °F 29.82 in SW 4.0 mph 6.0 mph 30% 0.00 in 105.00 W/m2
19:29 82.0 °F 46.6 °F 29.82 in SW 4.0 mph 7.0 mph 29% 0.00 in 90.00 W/m2
19:35 81.7 °F 47.3 °F 29.82 in SSW 6.0 mph 10.0 mph 30% 0.00 in 72.00 W/m2
19:40 81.3 °F 47.8 °F 29.82 in Calm   9.0 mph 31% 0.00 in 56.00 W/m2
19:45 81.0 °F 47.5 °F 29.82 in Calm   7.0 mph 31% 0.00 in 46.00 W/m2
19:50 80.7 °F 48.1 °F 29.82 in Calm   5.0 mph 32% 0.00 in 33.00 W/m2
19:55 80.3 °F 48.6 °F 29.82 in SSW 2.0 mph 6.0 mph 33% 0.00 in 25.00 W/m2
20:00 80.0 °F 48.3 °F 29.82 in Calm   5.0 mph 33% 0.00 in 18.00 W/m2
20:05 79.6 °F 48.8 °F 29.82 in Calm   5.0 mph 34% 0.00 in 14.00 W/m2
20:10 79.2 °F 48.4 °F 29.82 in Calm   5.0 mph 34% 0.00 in 12.00 W/m2
20:15 78.8 °F 48.9 °F 29.83 in Calm   7.0 mph 35% 0.00 in 11.00 W/m2
20:20 78.4 °F 48.5 °F 29.83 in Calm   5.0 mph 35% 0.00 in 7.00 W/m2
20:25 78.1 °F 48.2 °F 29.83 in Calm   6.0 mph 35% 0.00 in 5.00 W/m2
20:30 77.7 °F 48.7 °F 29.83 in Calm     36% 0.00 in 5.00 W/m2
20:35 77.4 °F 48.4 °F 29.83 in Calm   3.0 mph 36% 0.00 in 0.00 W/m2
20:40 77.0 °F 48.8 °F 29.83 in SSW 5.0 mph 5.0 mph 37% 0.00 in 0.00 W/m2
20:45 76.6 °F 48.4 °F 29.83 in Calm   6.0 mph 37% 0.00 in 0.00 W/m2
20:50 76.3 °F 48.8 °F 29.83 in Calm   7.0 mph 38% 0.00 in 0.00 W/m2
20:55 75.9 °F 48.5 °F 29.83 in Calm   5.0 mph 38% 0.00 in 0.00 W/m2
21:00 75.6 °F 48.2 °F 29.83 in South 3.0 mph 4.0 mph 38% 0.00 in 0.00 W/m2
21:05 75.3 °F 48.0 °F 29.83 in Calm   5.0 mph 38% 0.00 in 0.00 W/m2
21:10 75.1 °F 47.8 °F 29.83 in Calm   6.0 mph 38% 0.00 in 0.00 W/m2
21:15 75.1 °F 47.8 °F 29.84 in SSE 4.0 mph 8.0 mph 38% 0.00 in 0.00 W/m2
21:20 75.1 °F 47.1 °F 29.84 in Calm   8.0 mph 37% 0.00 in 0.00 W/m2
21:25 75.1 °F 47.1 °F 29.84 in SSE 4.0 mph 7.0 mph 37% 0.00 in 0.00 W/m2
21:30 75.0 °F 47.0 °F 29.84 in Calm   7.0 mph 37% 0.00 in 0.00 W/m2
21:35 74.9 °F 46.9 °F 29.84 in Calm   5.0 mph 37% 0.00 in 0.00 W/m2
21:40 74.9 °F 46.9 °F 29.84 in SSE 5.0 mph 8.0 mph 37% 0.00 in 0.00 W/m2
21:45 74.8 °F 46.8 °F 29.85 in SSE 6.0 mph 9.0 mph 37% 0.00 in 0.00 W/m2
21:50 74.7 °F 46.7 °F 29.85 in Calm   8.0 mph 37% 0.00 in 0.00 W/m2
21:55 74.7 °F 46.7 °F 29.85 in SSE 5.0 mph 8.0 mph 37% 0.00 in 0.00 W/m2
22:00 74.6 °F 46.6 °F 29.85 in SSE 4.0 mph 6.0 mph 37% 0.00 in 0.00 W/m2
22:05 74.6 °F 46.6 °F 29.85 in SSE 5.0 mph 6.0 mph 37% 0.00 in 0.00 W/m2
22:10 74.5 °F 46.5 °F 29.85 in SSE 2.0 mph 7.0 mph 37% 0.00 in 0.00 W/m2
22:15 74.5 °F 46.5 °F 29.85 in SSE 5.0 mph 7.0 mph 37% 0.00 in 0.00 W/m2
22:20 74.4 °F 46.5 °F 29.85 in SSE 5.0 mph 8.0 mph 37% 0.00 in 0.00 W/m2
22:25 74.3 °F 46.4 °F 29.85 in SSE 5.0 mph 6.0 mph 37% 0.00 in 0.00 W/m2
22:30 74.2 °F 47.0 °F 29.85 in SSE 1.0 mph 10.0 mph 38% 0.00 in 0.00 W/m2
22:35 74.2 °F 47.0 °F 29.85 in SSE 4.0 mph 8.0 mph 38% 0.00 in 0.00 W/m2
22:40 74.2 °F 47.0 °F 29.85 in SE 6.0 mph 10.0 mph 38% 0.00 in 0.00 W/m2
22:45 74.1 °F 46.9 °F 29.85 in SE 2.0 mph 8.0 mph 38% 0.00 in 0.00 W/m2
22:50 74.0 °F 46.8 °F 29.85 in SE 1.0 mph 8.0 mph 38% 0.00 in 0.00 W/m2
22:55 74.0 °F 46.8 °F 29.85 in SE 5.0 mph 8.0 mph 38% 0.00 in 0.00 W/m2
23:00 73.9 °F 46.7 °F 29.86 in SE 4.0 mph 9.0 mph 38% 0.00 in 0.00 W/m2
23:05 73.8 °F 46.6 °F 29.86 in SE 8.0 mph 10.0 mph 38% 0.00 in 0.00 W/m2
23:10 73.8 °F 46.6 °F 29.86 in SE 6.0 mph 9.0 mph 38% 0.00 in 0.00 W/m2
23:15 73.7 °F 46.5 °F 29.86 in SE 4.0 mph 8.0 mph 38% 0.00 in 0.00 W/m2
23:20 73.6 °F 46.5 °F 29.86 in SE 5.0 mph 9.0 mph 38% 0.00 in 0.00 W/m2
23:25 73.5 °F 46.4 °F 29.86 in SE 7.0 mph 9.0 mph 38% 0.00 in 0.00 W/m2
23:30 73.4 °F 46.3 °F 29.86 in SE 4.0 mph 11.0 mph 38% 0.00 in 0.00 W/m2
23:33 73.3 °F 46.2 °F 29.86 in SE 4.0 mph 8.0 mph 38% 0.00 in 0.00 W/m2
23:38 73.2 °F 46.1 °F 29.86 in SE 8.0 mph 9.0 mph 38% 0.00 in 0.00 W/m2
23:43 73.1 °F 46.0 °F 29.86 in SE 5.0 mph 8.0 mph 38% 0.00 in 0.00 W/m2
23:48 73.0 °F 46.6 °F 29.86 in Calm   9.0 mph 39% 0.00 in 0.00 W/m2
23:53 72.8 °F 46.4 °F 29.86 in SE 4.0 mph 9.0 mph 39% 0.00 in 0.00 W/m2
23:58 72.7 °F 46.3 °F 29.86 in Calm   7.0 mph 39% 0.00 in 0.00 W/m2
Foresthill Weather
 WU-history PHP script courtesy of   Juneau County Weather.
powered by Cumulus v1.9.3 (1059)
Ambient Weather VWS v14.00
Top Contact Website Map Copyright © 2007 - 2018 Foresthillweather.com Never base important decisions on this or any weather information obtained from the Internet